HB9BFD-10 Weather Reports


time (UTC)temp
C
wind
direction
speed
KPH
gust
KPH
rain 1hr
cm
rain 24hr
cm
rain mn
cm
humidity
%
barometer
mb
20260505200442 -17 0.0 0.0 0.00 0.00 0.00 76 1012.6
20260505195942 -17 0.0 0.0 0.00 0.00 0.00 76 1012.4
20260505195442 -17 0.0 0.0 0.00 0.00 0.00 75 1012.4
20260505194942 -17 0.0 0.0 0.00 0.00 0.00 75 1012.4
20260505194442 -17 0.0 0.0 0.00 0.00 0.00 75 1012.4
20260505193942 -17 0.0 0.0 0.00 0.00 0.00 75 1012.3
20260505193442 -17 0.0 0.0 0.00 0.00 0.00 74 1012.3
20260505192942 -17 0.0 0.0 0.00 0.00 0.00 73 1012.3
20260505192442 -17 0.0 0.0 0.00 0.00 0.00 72 1012.2
20260505191942 -17 0.0 0.0 0.00 0.00 0.00 72 1012.1
20260505191442 -17 0.0 0.0 0.00 0.00 0.00 73 1012.0
20260505190942 -17 0.0 0.0 0.00 0.00 0.00 73 1012.0
20260505190442 -17 0.0 0.0 0.00 0.00 0.00 73 1012.0
20260505185942 -17 0.0 0.0 0.00 0.00 0.00 73 1011.8
20260505185442 -17 0.0 0.0 0.00 0.00 0.00 72 1011.8
20260505184942 -17 0.0 0.0 0.00 0.00 0.00 71 1011.7
20260505184442 -17 0.0 0.0 0.00 0.00 0.00 70 1011.8
20260505183942 -17 0.0 0.0 0.00 0.00 0.00 70 1011.7
20260505183442 -17 0.0 0.0 0.00 0.00 0.00 70 1011.7
20260505182942 -17 0.0 0.0 0.00 0.00 0.00 69 1011.7
20260505182442 -17 0.0 0.0 0.00 0.00 0.00 68 1011.7
20260505181942 -17 0.0 0.0 0.00 0.00 0.00 68 1011.8
20260505181442 -17 0.0 0.0 0.00 0.00 0.00 67 1011.8
20260505180942 -17 0.0 0.0 0.00 0.00 0.00 67 1011.7
20260505180442 -17 0.0 0.0 0.00 0.00 0.00 66 1011.5
20260505175942 -17 0.0 0.0 0.00 0.00 0.00 66 1011.6
20260505175442 -17 0.0 0.0 0.00 0.00 0.00 65 1011.5
20260505174942 -17 0.0 0.0 0.00 0.00 0.00 65 1011.7
20260505174442 -17 0.0 0.0 0.00 0.00 0.00 65 1011.8
20260505173942 -17 0.0 0.0 0.00 0.00 0.00 67 1011.7
20260505173442 -17 0.0 0.0 0.00 0.00 0.00 68 1011.7
20260505172942 -17 0.0 0.0 0.00 0.00 0.00 68 1011.5
20260505172442 -17 0.0 0.0 0.00 0.00 0.00 68 1011.6
20260505171942 -17 0.0 0.0 0.00 0.00 0.00 70 1011.5
20260505171442 -17 0.0 0.0 0.00 0.00 0.00 69 1011.4
20260505170942 -17 0.0 0.0 0.00 0.00 0.00 70 1011.4
20260505170442 -17 0.0 0.0 0.00 0.00 0.00 70 1011.4
20260505165942 -17 0.0 0.0 0.00 0.00 0.00 70 1011.4
20260505165442 -17 0.0 0.0 0.00 0.00 0.00 68 1011.5
20260505164942 -17 0.0 0.0 0.00 0.00 0.00 68 1011.6
20260505164442 -17 0.0 0.0 0.00 0.00 0.00 68 1011.3
20260505163942 -17 0.0 0.0 0.00 0.00 0.00 68 1011.5
20260505163442 -17 0.0 0.0 0.00 0.00 0.00 66 1011.6
20260505162942 -17 0.0 0.0 0.00 0.00 0.00 67 1011.5
20260505162442 -17 0.0 0.0 0.00 0.00 0.00 66 1011.6
20260505161942 -17 0.0 0.0 0.00 0.00 0.00 65 1011.6
20260505161442 -17 0.0 0.0 0.00 0.00 0.00 64 1011.8
20260505160942 -17 0.0 0.0 0.00 0.00 0.00 63 1011.8
20260505160442 -17 0.0 0.0 0.00 0.00 0.00 62 1011.9
20260505152942 -17 0.0 0.0 0.00 0.00 0.00 62 1011.6
20260505152442 -17 0.0 0.0 0.00 0.00 0.00 63 1011.6
20260505151942 -17 0.0 0.0 0.00 0.00 0.00 63 1011.7
20260505151442 -17 0.0 0.0 0.00 0.00 0.00 64 1011.5
20260505150942 -17 0.0 0.0 0.00 0.00 0.00 67 1011.5
20260505150442 -17 0.0 0.0 0.00 0.00 0.00 70 1011.4
20260505140442 -17 0.0 0.0 0.00 0.00 0.00 58 1011.2
20260505124942 -17 0.0 0.0 0.00 0.00 0.00 52 1011.6
20260505124442 -17 0.0 0.0 0.00 0.00 0.00 52 1011.5
20260505123942 -17 0.0 0.0 0.00 0.00 0.00 52 1011.6
20260505123442 -17 0.0 0.0 0.00 0.00 0.00 49 1011.5
20260505122942 -17 0.0 0.0 0.00 0.00 0.00 53 1011.6
20260505122442 -17 0.0 0.0 0.00 0.00 0.00 57 1011.5
20260505121942 -17 0.0 0.0 0.00 0.00 0.00 57 1011.6
20260505121442 -17 0.0 0.0 0.00 0.00 0.00 53 1011.5
20260505120942 -17 0.0 0.0 0.00 0.00 0.00 50 1011.5
20260505120442 -17 0.0 0.0 0.00 0.00 0.00 53 1011.6
20260505115942 -17 0.0 0.0 0.00 0.00 0.00 57 1011.7
20260505115442 -17 0.0 0.0 0.00 0.00 0.00 59 1011.7
20260505114942 -17 0.0 0.0 0.00 0.00 0.00 59 1011.7
20260505114442 -17 0.0 0.0 0.00 0.00 0.00 62 1011.7
20260505113942 -17 0.0 0.0 0.00 0.00 0.00 65 1011.7
20260505113442 -17 0.0 0.0 0.00 0.00 0.00 67 1011.7
20260505112942 -17 0.0 0.0 0.00 0.00 0.00 72 1011.8
20260505112442 -17 0.0 0.0 0.00 0.00 0.00 71 1011.7
20260505111942 -17 0.0 0.0 0.00 0.00 0.00 67 1011.7
20260505111442 -17 0.0 0.0 0.00 0.00 0.00 66 1011.7
20260505110942 -17 0.0 0.0 0.00 0.00 0.00 63 1011.7
20260505110442 -17 0.0 0.0 0.00 0.00 0.00 66 1011.8
20260505101942 -17 0.0 0.0 0.00 0.00 0.00 74 1012.2
20260505101442 -17 0.0 0.0 0.00 0.00 0.00 74 1012.2
20260505100942 -17 0.0 0.0 0.00 0.00 0.00 74 1012.2
20260505100442 -17 0.0 0.0 0.00 0.00 0.00 73 1012.2
20260505095942 -17 0.0 0.0 0.00 0.00 0.00 75 1012.2
20260505095442 -17 0.0 0.0 0.00 0.00 0.00 74 1012.2
20260505094942 -17 0.0 0.0 0.00 0.00 0.00 73 1012.0
20260505094442 -17 0.0 0.0 0.00 0.00 0.00 75 1012.0
20260505093942 -17 0.0 0.0 0.00 0.00 0.00 74 1012.0
20260505093442 -17 0.0 0.0 0.00 0.00 0.00 75 1012.0
20260505092942 -17 0.0 0.0 0.00 0.00 0.00 74 1012.0
20260505092442 -17 0.0 0.0 0.00 0.00 0.00 72 1011.9
20260505091942 -17 0.0 0.0 0.00 0.00 0.00 73 1011.9
20260505091442 -17 0.0 0.0 0.00 0.00 0.00 75 1012.0
20260505090942 -17 0.0 0.0 0.00 0.00 0.00 75 1012.0
20260505090442 -17 0.0 0.0 0.00 0.00 0.00 78 1012.1
20260505085942 -17 0.0 0.0 0.00 0.00 0.00 78 1012.2
20260505085442 -17 0.0 0.0 0.00 0.00 0.00 79 1012.1
20260505084942 -17 0.0 0.0 0.00 0.00 0.00 78 1012.2
20260505084442 -17 0.0 0.0 0.00 0.00 0.00 78 1012.1
20260505083942 -17 0.0 0.0 0.00 0.00 0.00 80 1012.3
20260505083442 -17 0.0 0.0 0.00 0.00 0.00 79 1012.2
20260505082942 -17 0.0 0.0 0.00 0.00 0.00 79 1012.3
20260505082442 -17 0.0 0.0 0.00 0.00 0.00 80 1012.3
20260505081942 -17 0.0 0.0 0.00 0.00 0.00 76 1012.2
20260505081442 -17 0.0 0.0 0.00 0.00 0.00 73 1012.1
20260505080942 -17 0.0 0.0 0.00 0.00 0.00 73 1012.2
20260505080442 -17 0.0 0.0 0.00 0.00 0.00 75 1012.4
20260505075942 -17 0.0 0.0 0.00 0.00 0.00 78 1012.4
20260505075442 -17 0.0 0.0 0.00 0.00 0.00 78 1012.5
20260505074942 -17 0.0 0.0 0.00 0.00 0.00 79 1012.7
20260505074442 -17 0.0 0.0 0.00 0.00 0.00 79 1012.8
20260505073942 -17 0.0 0.0 0.00 0.00 0.00 79 1012.8
20260505073442 -17 0.0 0.0 0.00 0.00 0.00 82 1012.9
20260505072942 -17 0.0 0.0 0.00 0.00 0.00 81 1012.8
20260505072442 -17 0.0 0.0 0.00 0.00 0.00 82 1012.8
20260505071942 -17 0.0 0.0 0.00 0.00 0.00 83 1012.9
20260505071442 -17 0.0 0.0 0.00 0.00 0.00 83 1013.0
20260505070942 -17 0.0 0.0 0.00 0.00 0.00 83 1013.0
20260505070442 -17 0.0 0.0 0.00 0.00 0.00 84 1013.0
20260505065942 -17 0.0 0.0 0.00 0.00 0.00 82 1013.0
20260505065442 -17 0.0 0.0 0.00 0.00 0.00 82 1013.0
20260505064942 -17 0.0 0.0 0.00 0.00 0.00 83 1013.0
20260505064442 -17 0.0 0.0 0.00 0.00 0.00 83 1013.0
20260505063942 -17 0.0 0.0 0.00 0.00 0.00 83 1013.1
20260505063442 -17 0.0 0.0 0.00 0.00 0.00 83 1013.1
20260505062942 -17 0.0 0.0 0.00 0.00 0.00 83 1013.2
20260505062442 -17 0.0 0.0 0.00 0.00 0.00 83 1013.2
20260505061942 -17 0.0 0.0 0.00 0.00 0.00 82 1013.2
20260505061442 -17 0.0 0.0 0.00 0.00 0.00 82 1013.2
20260505060942 -17 0.0 0.0 0.00 0.00 0.00 82 1013.2
20260505060442 -17 0.0 0.0 0.00 0.00 0.00 83 1013.4
20260505055942 -17 0.0 0.0 0.00 0.00 0.00 83 1013.2
20260505055442 -17 0.0 0.0 0.00 0.00 0.00 83 1013.3
20260505054942 -17 0.0 0.0 0.00 0.00 0.00 84 1013.2
20260505054442 -17 0.0 0.0 0.00 0.00 0.00 84 1013.1
20260505053942 -17 0.0 0.0 0.00 0.00 0.00 82 1013.1
20260505053442 -17 0.0 0.0 0.00 0.00 0.00 82 1013.1
20260505052942 -17 0.0 0.0 0.00 0.00 0.00 83 1013.1
20260505052442 -17 0.0 0.0 0.00 0.00 0.00 81 1013.0
20260505051942 -17 0.0 0.0 0.00 0.00 0.00 82 1012.9
20260505051442 -17 0.0 0.0 0.00 0.00 0.00 82 1012.9
20260505050942 -17 0.0 0.0 0.00 0.00 0.00 82 1012.9
20260505050442 -17 0.0 0.0 0.00 0.00 0.00 81 1013.0
20260505041442 -17 0.0 0.0 0.00 0.00 0.00 84 1013.4
20260505040942 -17 0.0 0.0 0.00 0.00 0.00 84 1013.5
20260505040442 -17 0.0 0.0 0.00 0.00 0.00 84 1013.3
20260505035942 -17 0.0 0.0 0.00 0.00 0.00 84 1013.2
20260505035442 -17 0.0 0.0 0.00 0.00 0.00 84 1013.1
20260505034942 -17 0.0 0.0 0.00 0.00 0.00 82 1013.1
20260505034442 -17 0.0 0.0 0.00 0.00 0.00 82 1013.0
20260505033942 -17 0.0 0.0 0.00 0.00 0.00 82 1013.0
20260505033442 -17 0.0 0.0 0.00 0.00 0.00 83 1013.1
20260505032942 -17 0.0 0.0 0.00 0.00 0.00 82 1013.2
20260505032442 -17 0.0 0.0 0.00 0.00 0.00 82 1013.4
20260505031942 -17 0.0 0.0 0.00 0.00 0.00 82 1013.5
20260505031442 -17 0.0 0.0 0.00 0.00 0.00 81 1013.5
20260505030942 -17 0.0 0.0 0.00 0.00 0.00 81 1013.5
20260505030442 -17 0.0 0.0 0.00 0.00 0.00 81 1013.5
20260505025942 -17 0.0 0.0 0.00 0.00 0.00 82 1013.4
20260505025442 -17 0.0 0.0 0.00 0.00 0.00 81 1013.4
20260505024942 -17 0.0 0.0 0.00 0.00 0.00 81 1013.4
20260505024442 -17 0.0 0.0 0.00 0.00 0.00 83 1013.5
20260505023942 -17 0.0 0.0 0.00 0.00 0.00 83 1013.6
20260505023442 -17 0.0 0.0 0.00 0.00 0.00 83 1013.5
20260505022942 -17 0.0 0.0 0.00 0.00 0.00 82 1013.7
20260505022442 -17 0.0 0.0 0.00 0.00 0.00 82 1013.8
20260505021942 -17 0.0 0.0 0.00 0.00 0.00 82 1013.9
20260505021442 -17 0.0 0.0 0.00 0.00 0.00 82 1013.9
20260505020942 -17 0.0 0.0 0.00 0.00 0.00 81 1013.8
20260505020442 -17 0.0 0.0 0.00 0.00 0.00 82 1013.8
20260505015942 -17 0.0 0.0 0.00 0.00 0.00 82 1013.9
20260505015442 -17 0.0 0.0 0.00 0.00 0.00 81 1013.9
20260505014942 -17 0.0 0.0 0.00 0.00 0.00 82 1013.8
20260505014442 -17 0.0 0.0 0.00 0.00 0.00 81 1013.7
20260505013942 -17 0.0 0.0 0.00 0.00 0.00 81 1013.7
20260505013442 -17 0.0 0.0 0.00 0.00 0.00 81 1014.0
20260505012942 -17 0.0 0.0 0.00 0.00 0.00 80 1013.8
20260505012442 -17 0.0 0.0 0.00 0.00 0.00 80 1013.9
20260505011942 -17 0.0 0.0 0.00 0.00 0.00 81 1013.9
20260505011442 -17 0.0 0.0 0.00 0.00 0.00 81 1014.0
20260505010942 -17 0.0 0.0 0.00 0.00 0.00 82 1014.1
20260505010442 -17 0.0 0.0 0.00 0.00 0.00 82 1014.1
20260505005942 -17 0.0 0.0 0.00 0.00 0.00 81 1014.3
20260505005442 -17 0.0 0.0 0.00 0.00 0.00 81 1014.3
20260505004942 -17 0.0 0.0 0.00 0.00 0.00 81 1014.4
20260505004442 -17 0.0 0.0 0.00 0.00 0.00 82 1014.6
20260505003942 -17 0.0 0.0 0.00 0.00 0.00 81 1014.6
20260505003442 -17 0.0 0.0 0.00 0.00 0.00 82 1014.8
20260505002942 -17 0.0 0.0 0.00 0.00 0.00 81 1014.8
20260505002442 -17 0.0 0.0 0.00 0.00 0.00 81 1014.7
20260505001942 -17 0.0 0.0 0.00 0.00 0.00 81 1014.9
20260505001442 -17 0.0 0.0 0.00 0.00 0.00 81 1014.8
20260505000942 -17 0.0 0.0 0.00 0.00 0.00 80 1014.9
20260505000442 -17 0.0 0.0 0.00 0.00 0.00 80 1014.9
20260504235942 -17 0.0 0.0 0.00 0.00 0.00 80 1014.9
20260504235442 -17 0.0 0.0 0.00 0.00 0.00 80 1015.0
20260504234942 -17 0.0 0.0 0.00 0.00 0.00 80 1015.1
20260504234442 -17 0.0 0.0 0.00 0.00 0.00 80 1015.2
20260504233942 -17 0.0 0.0 0.00 0.00 0.00 80 1015.2
20260504233442 -17 0.0 0.0 0.00 0.00 0.00 80 1015.1
20260504232942 -17 0.0 0.0 0.00 0.00 0.00 80 1015.2
20260504232442 -17 0.0 0.0 0.00 0.00 0.00 80 1015.3
20260504231942 -17 0.0 0.0 0.00 0.00 0.00 80 1015.5
20260504231442 -17 0.0 0.0 0.00 0.00 0.00 79 1015.5
20260504230942 -17 0.0 0.0 0.00 0.00 0.00 79 1015.5
20260504230442 -17 0.0 0.0 0.00 0.00 0.00 80 1015.5
20260504225942 -17 0.0 0.0 0.00 0.00 0.00 80 1015.5
20260504225442 -17 0.0 0.0 0.00 0.00 0.00 80 1015.5
20260504224942 -17 0.0 0.0 0.00 0.00 0.00 81 1015.4
20260504224442 -17 0.0 0.0 0.00 0.00 0.00 81 1015.5
20260504223942 -17 0.0 0.0 0.00 0.00 0.00 81 1015.6
20260504223442 -17 0.0 0.0 0.00 0.00 0.00 79 1015.5
20260504222942 -17 0.0 0.0 0.00 0.00 0.00 79 1015.7
20260504222442 -17 0.0 0.0 0.00 0.00 0.00 79 1015.8
20260504221942 -17 0.0 0.0 0.00 0.00 0.00 78 1015.8
20260504221442 -17 0.0 0.0 0.00 0.00 0.00 79 1015.7
20260504220942 -17 0.0 0.0 0.00 0.00 0.00 79 1015.7
20260504220442 -17 0.0 0.0 0.00 0.00 0.00 80 1015.8
20260504215942 -17 0.0 0.0 0.00 0.00 0.00 79 1015.6
20260504215442 -17 0.0 0.0 0.00 0.00 0.00 80 1015.7
20260504214942 -17 0.0 0.0 0.00 0.00 0.00 79 1015.8
20260504214442 -17 0.0 0.0 0.00 0.00 0.00 78 1015.8
20260504213942 -17 0.0 0.0 0.00 0.00 0.00 78 1015.9
20260504213442 -17 0.0 0.0 0.00 0.00 0.00 78 1015.9
20260504212942 -17 0.0 0.0 0.00 0.00 0.00 78 1015.8
20260504212442 -17 0.0 0.0 0.00 0.00 0.00 79 1015.8
20260504211942 -17 0.0 0.0 0.00 0.00 0.00 78 1015.9
20260504211442 -17 0.0 0.0 0.00 0.00 0.00 78 1016.0
20260504210942 -17 0.0 0.0 0.00 0.00 0.00 77 1016.1
20260504210442 -17 0.0 0.0 0.00 0.00 0.00 77 1016.1
20260504205942 -17 0.0 0.0 0.00 0.00 0.00 75 1016.3
20260504205442 -17 0.0 0.0 0.00 0.00 0.00 75 1016.4
20260504204942 -17 0.0 0.0 0.00 0.00 0.00 76 1016.4
20260504204442 -17 0.0 0.0 0.00 0.00 0.00 76 1016.4
20260504203942 -17 0.0 0.0 0.00 0.00 0.00 76 1016.4
20260504203442 -17 0.0 0.0 0.00 0.00 0.00 77 1016.3
20260504202942 -17 0.0 0.0 0.00 0.00 0.00 78 1016.3
20260504202442 -17 0.0 0.0 0.00 0.00 0.00 77 1016.4
20260504201942 -17 0.0 0.0 0.00 0.00 0.00 77 1016.3
20260504201442 -17 0.0 0.0 0.00 0.00 0.00 77 1016.3
20260504200942 -17 0.0 0.0 0.00 0.00 0.00 76 1016.3